TimeCST,TemperatureF,Dew PointF,Humidity,Sea Level PressureIn,VisibilityMPH,Wind Direction,Wind SpeedMPH,Gust SpeedMPH,PrecipitationIn,Events,Conditions,WindDirDegrees,DateUTC
12:15 AM,-0.4,-4.0,85,30.26,10.0,Calm,Calm,-,N/A,,Mostly Cloudy,0,2013-01-15 06:15:00
12:35 AM,-0.4,-4.0,85,30.27,10.0,Calm,Calm,-,N/A,,Overcast,0,2013-01-15 06:35:00
12:55 AM,1.4,-2.2,85,30.27,10.0,Calm,Calm,-,N/A,,Overcast,0,2013-01-15 06:55:00
1:15 AM,3.2,-0.4,85,30.27,10.0,Calm,Calm,-,N/A,,Overcast,0,2013-01-15 07:15:00
1:35 AM,3.2,-0.4,85,30.27,10.0,Calm,Calm,-,N/A,,Mostly Cloudy,0,2013-01-15 07:35:00
1:55 AM,1.4,-0.4,92,30.27,10.0,Calm,Calm,-,N/A,,Scattered Clouds,0,2013-01-15 07:55:00
2:15 AM,1.4,-2.2,85,30.26,10.0,Calm,Calm,-,N/A,,Clear,0,2013-01-15 08:15:00
2:35 AM,-0.4,-4.0,85,30.26,10.0,Calm,Calm,-,N/A,,Clear,0,2013-01-15 08:35:00
2:55 AM,1.4,-2.2,85,30.26,10.0,Calm,Calm,-,N/A,,Mostly Cloudy,0,2013-01-15 08:55:00
3:15 AM,1.4,-0.4,92,30.26,10.0,Calm,Calm,-,N/A,,Scattered Clouds,0,2013-01-15 09:15:00
3:35 AM,1.4,-2.2,85,30.25,10.0,Calm,Calm,-,N/A,,Scattered Clouds,0,2013-01-15 09:35:00
3:55 AM,3.2,-0.4,85,30.24,10.0,SSE,3.5,-,N/A,,Mostly Cloudy,160,2013-01-15 09:55:00
4:15 AM,3.2,-0.4,85,30.23,10.0,Calm,Calm,-,N/A,,Overcast,0,2013-01-15 10:15:00
4:55 AM,5.0,1.4,85,30.21,10.0,Calm,Calm,-,N/A,,Overcast,0,2013-01-15 10:55:00
5:15 AM,5.0,1.4,85,30.20,10.0,Calm,Calm,-,N/A,,Overcast,0,2013-01-15 11:15:00
5:35 AM,5.0,1.4,85,30.20,10.0,Calm,Calm,-,N/A,,Overcast,0,2013-01-15 11:35:00
5:55 AM,5.0,1.4,85,30.19,10.0,Calm,Calm,-,N/A,,Overcast,0,2013-01-15 11:55:00
6:15 AM,5.0,1.4,85,30.19,10.0,Calm,Calm,-,N/A,,Mostly Cloudy,0,2013-01-15 12:15:00
6:35 AM,3.2,1.4,92,30.19,10.0,Calm,Calm,-,N/A,,Clear,0,2013-01-15 12:35:00
6:55 AM,5.0,3.2,92,30.20,10.0,Calm,Calm,-,N/A,,Clear,0,2013-01-15 12:55:00
7:15 AM,5.0,3.2,92,30.19,10.0,Calm,Calm,-,N/A,,Clear,0,2013-01-15 13:15:00
7:35 AM,5.0,3.2,92,30.19,10.0,South,3.5,-,N/A,,Clear,190,2013-01-15 13:35:00
7:55 AM,6.8,3.2,85,30.19,7.0,South,3.5,-,N/A,,Clear,190,2013-01-15 13:55:00
8:15 AM,6.8,3.2,85,30.20,10.0,South,3.5,-,N/A,,Clear,190,2013-01-15 14:15:00
8:35 AM,8.6,5.0,85,30.19,7.0,South,3.5,-,N/A,,Clear,190,2013-01-15 14:35:00
8:55 AM,8.6,5.0,85,30.19,10.0,South,5.8,-,N/A,,Clear,190,2013-01-15 14:55:00
9:15 AM,10.4,6.8,85,30.19,10.0,SSW,4.6,-,N/A,,Clear,210,2013-01-15 15:15:00
9:35 AM,12.2,8.6,85,30.18,10.0,SSW,3.5,-,N/A,,Clear,210,2013-01-15 15:35:00
9:55 AM,14.0,10.4,86,30.18,10.0,SW,5.8,-,N/A,,Clear,220,2013-01-15 15:55:00
10:15 AM,15.8,10.4,79,30.18,10.0,SW,5.8,-,N/A,,Clear,220,2013-01-15 16:15:00
10:35 AM,17.6,12.2,79,30.18,10.0,West,5.8,-,N/A,,Clear,260,2013-01-15 16:35:00
10:55 AM,19.4,12.2,74,30.17,10.0,SSW,5.8,-,N/A,,Clear,210,2013-01-15 16:55:00
11:15 AM,19.4,12.2,74,30.16,10.0,SSW,5.8,-,N/A,,Clear,200,2013-01-15 17:15:00
11:35 AM,21.2,12.2,68,30.15,10.0,South,6.9,-,N/A,,Clear,190,2013-01-15 17:35:00
11:55 AM,23.0,12.2,63,30.14,10.0,SW,6.9,-,N/A,,Clear,220,2013-01-15 17:55:00
12:15 PM,23.0,12.2,63,30.12,10.0,SSW,6.9,-,N/A,,Clear,200,2013-01-15 18:15:00
12:35 PM,23.0,10.4,59,30.11,10.0,SW,5.8,-,N/A,,Clear,220,2013-01-15 18:35:00
12:55 PM,24.8,10.4,54,30.10,10.0,SW,6.9,-,N/A,,Clear,220,2013-01-15 18:55:00
1:15 PM,26.6,10.4,51,30.10,10.0,WSW,5.8,17.3,N/A,,Clear,240,2013-01-15 19:15:00
1:55 PM,26.6,8.6,47,30.08,10.0,WSW,9.2,-,N/A,,Clear,240,2013-01-15 19:55:00
2:15 PM,26.6,10.4,51,30.08,10.0,SSW,5.8,-,N/A,,Clear,210,2013-01-15 20:15:00
2:35 PM,26.6,8.6,47,30.07,10.0,SW,5.8,-,N/A,,Clear,230,2013-01-15 20:35:00
2:55 PM,26.6,8.6,47,30.07,10.0,SW,8.1,-,N/A,,Clear,230,2013-01-15 20:55:00
3:15 PM,26.6,8.6,47,30.07,10.0,SW,8.1,-,N/A,,Clear,220,2013-01-15 21:15:00
3:35 PM,24.8,8.6,50,30.07,10.0,SSW,4.6,-,N/A,,Clear,200,2013-01-15 21:35:00
3:55 PM,23.0,10.4,59,30.06,10.0,SSW,6.9,-,N/A,,Clear,200,2013-01-15 21:55:00
4:15 PM,23.0,10.4,59,30.06,10.0,SSW,4.6,-,N/A,,Clear,210,2013-01-15 22:15:00
4:35 PM,23.0,10.4,59,30.05,10.0,SSW,3.5,-,N/A,,Clear,200,2013-01-15 22:35:00
4:55 PM,21.2,10.4,63,30.04,10.0,Calm,Calm,-,N/A,,Clear,0,2013-01-15 22:55:00
5:15 PM,19.4,10.4,68,30.04,10.0,Calm,Calm,-,N/A,,Clear,0,2013-01-15 23:15:00
5:35 PM,19.4,10.4,68,30.03,10.0,Calm,Calm,-,N/A,,Clear,0,2013-01-15 23:35:00
5:55 PM,19.4,10.4,68,30.02,10.0,Calm,Calm,-,N/A,,Scattered Clouds,0,2013-01-15 23:55:00
6:15 PM,21.2,12.2,68,30.02,10.0,South,3.5,-,N/A,,Mostly Cloudy,180,2013-01-16 00:15:00
6:35 PM,21.2,12.2,68,30.02,10.0,South,3.5,-,N/A,,Overcast,180,2013-01-16 00:35:00
6:55 PM,21.2,14.0,74,30.00,10.0,South,4.6,-,N/A,,Overcast,190,2013-01-16 00:55:00
7:15 PM,23.0,14.0,68,30.00,10.0,South,5.8,-,N/A,,Mostly Cloudy,190,2013-01-16 01:15:00
7:35 PM,23.0,14.0,68,29.98,10.0,South,5.8,-,N/A,,Scattered Clouds,190,2013-01-16 01:35:00
7:55 PM,23.0,14.0,68,29.97,10.0,SSW,4.6,-,N/A,,Scattered Clouds,200,2013-01-16 01:55:00
8:15 PM,23.0,14.0,68,29.97,10.0,South,4.6,-,N/A,,Scattered Clouds,190,2013-01-16 02:15:00
8:35 PM,23.0,14.0,68,29.95,10.0,SSW,5.8,-,N/A,,Clear,200,2013-01-16 02:35:00
8:55 PM,23.0,14.0,68,29.94,10.0,SSW,8.1,-,N/A,,Scattered Clouds,200,2013-01-16 02:55:00
9:15 PM,23.0,14.0,68,29.93,10.0,SSW,6.9,-,N/A,,Mostly Cloudy,200,2013-01-16 03:15:00
9:35 PM,23.0,14.0,68,29.92,10.0,SSW,5.8,-,N/A,,Mostly Cloudy,200,2013-01-16 03:35:00
9:55 PM,23.0,14.0,68,29.91,10.0,SSW,5.8,-,N/A,,Overcast,200,2013-01-16 03:55:00
10:15 PM,23.0,14.0,68,29.90,10.0,SSW,5.8,-,N/A,,Overcast,210,2013-01-16 04:15:00
10:35 PM,23.0,14.0,68,29.89,10.0,SSW,9.2,21.9,N/A,,Overcast,210,2013-01-16 04:35:00
10:55 PM,23.0,14.0,68,29.87,10.0,South,9.2,-,N/A,,Mostly Cloudy,190,2013-01-16 04:55:00
11:15 PM,23.0,14.0,68,29.85,10.0,SSW,8.1,17.3,N/A,,Mostly Cloudy,210,2013-01-16 05:15:00
11:35 PM,23.0,14.0,68,29.85,10.0,SSW,6.9,-,N/A,,Overcast,200,2013-01-16 05:35:00